This is the latest recevied weather packets stored in our database for station/object KB1ZFK. If no packets are shown the sender has not sent any weather packets the latest 10 day(s).
| Time | Temp. | Humidity | Pressure | Rain* | Wind** | Luminosity | Snow |
|---|---|---|---|---|---|---|---|
| 1777908538 | 17.78° C | 38% | 1007.6 hPa | 0 mm | - | 750 W/m² | - |
| 1777908236 | 17.78° C | 39% | 1007.4 hPa | 0 mm | - | 781 W/m² | - |
| 1777907932 | 17.78° C | 37% | 1007.4 hPa | 0 mm | - | 805 W/m² | - |
| 1777907627 | 17.22° C | 39% | 1007.4 hPa | 0 mm | - | 782 W/m² | - |
| 1777907323 | 17.22° C | 39% | 1007.8 hPa | 0 mm | - | 790 W/m² | - |
| 1777907020 | 17.78° C | 38% | 1007.5 hPa | 0 mm | - | 777 W/m² | - |
| 1777906718 | 17.78° C | 39% | 1007.6 hPa | 0 mm | - | 775 W/m² | - |
| 1777906413 | 17.78° C | 41% | 1007.5 hPa | 0 mm | - | 758 W/m² | - |
| 1777906110 | 17.22° C | 42% | 1007.7 hPa | 0 mm | - | 748 W/m² | - |
| 1777905807 | 17.22° C | 42% | 1007.8 hPa | 0 mm | - | 695 W/m² | - |
| 1777905505 | 16.67° C | 41% | 1007.7 hPa | 0 mm | - | 730 W/m² | - |
| 1777905201 | 16.67° C | 41% | 1007.6 hPa | 0 mm | - | 707 W/m² | - |
| 1777904898 | 16.67° C | 45% | 1007.7 hPa | 0 mm | - | 705 W/m² | - |
| 1777904595 | 16.11° C | 45% | 1008.1 hPa | 0 mm | - | 681 W/m² | - |
| 1777904293 | 16.11° C | 46% | 1008.3 hPa | 0 mm | - | 675 W/m² | - |
| 1777903990 | 16.11° C | 43% | 1008.2 hPa | 0 mm | - | 647 W/m² | - |
| 1777903686 | 15.56° C | 46% | 1008.4 hPa | 0 mm | - | 606 W/m² | - |
| 1777903382 | 15.56° C | 47% | 1008.5 hPa | 0 mm | - | 626 W/m² | - |
| 1777903079 | 15° C | 46% | 1008.7 hPa | 0 mm | - | 612 W/m² | - |
| 1777902775 | 13.89° C | 53% | 1008.6 hPa | 0 mm | - | 589 W/m² | - |
| 1777902473 | 13.33° C | 54% | 1008.6 hPa | 0 mm | - | 105 W/m² | - |
| 1777902169 | 13.33° C | 50% | 1008.7 hPa | 0 mm | - | 163 W/m² | - |
| 1777901868 | 13.89° C | 50% | 1008.6 hPa | 0 mm | - | 210 W/m² | - |
| 1777901565 | 13.89° C | 51% | 1008.8 hPa | 0 mm | - | 414 W/m² | - |
| 1777901262 | 13.33° C | 53% | 1008.8 hPa | 0 mm | - | 399 W/m² | - |
* Rain latest hour (hover to see other rain measurements)
** Current wind speed in m/s (hover to see current wind gust speed)